Home > Weather > Porto Alegre > Past weeks

Flag for Brazil Past Weather in Porto Alegre, Rio Grande do Sul, Brazil — Yesterday and Last 2 Weeks

Now
52 °F

Clear.


Feels Like: 52 °F
Forecast: 51 / 78 °F
Wind: 1 mph from East

Location: Porto Alegre Aero-Porto

Current Time: Aug 25, 2016 at 1:48:49 AM

Latest Report: Aug 25, 2016 at 1:00 AM


Visibility: 10 mi

Pressure: 30.07 "Hg

Humidity: 88%

Dew Point: 48 °F

Location of Porto AlegreLocation

Past Weather in Porto Alegre — Graph

°F

Porto Alegre Temperature Yesterday

Maximum temperature yesterday: 75 °F (at 3:00 PM)
Minimum temperature yesterday: 43 °F (at 7:00 AM)
Average temperature yesterday: 58 °F

High & Low Weather Summary for the Past Weeks

 TemperatureHumidityPressure
High77 °F (Aug 14, 2:00 PM)100% (Aug 13, 8:00 AM)30.36 "Hg (Aug 13, 8:00 AM)
Low43 °F (Aug 23, 6:00 AM)27% (Aug 23, 3:00 PM)29.62 "Hg (Aug 17, 12:00 AM)
Average59 °F74%30.06 "Hg
* Reported Aug 10 1:00 AM — Aug 25 1:00 AM, Porto Alegre, Weather by CustomWeather, © 2016

Note: Actual official high and low records may vary slightly from our data, if they occured in-between our weather recording intervals... More about our weather records

Advertising

Porto Alegre Weather History for the Previous 24 Hours

Scroll right to see more
 ConditionsComfort  
Time TempWeatherWind HumidityBarometerVisibility
1:00 AM
Thu, Aug 25
52 °FClear.1 mph88%30.07 "Hg10 mi
12:00 AM54 °FClear.2 mph88%30.07 "Hg10 mi
11:00 PM
Wed, Aug 24
55 °FClear.3 mph88%30.07 "Hg10 mi
10:00 PM57 °FClear.5 mph82%30.07 "Hg10 mi
9:00 PM59 °FClear.5 mph72%30.07 "Hg10 mi
8:00 PM61 °FClear.6 mph68%30.07 "Hg10 mi
7:00 PM63 °FClear.9 mph64%30.07 "Hg10 mi
6:00 PM68 °FClear.9 mph53%30.07 "Hg10 mi
5:00 PM72 °FSunny.12 mph38%30.07 "Hg10 mi
4:00 PM75 °FSunny.10 mph34%30.07 "Hg10 mi
3:00 PM75 °FPassing clouds.6 mph29%30.07 "HgN/A
2:00 PM73 °FSunny.5 mph29%30.09 "Hg10 mi
1:00 PM70 °FSunny.2 mph40%30.12 "Hg10 mi
12:00 PM68 °FSunny.No wind43%30.15 "Hg10 mi
11:00 AM63 °FSunny.3 mph52%30.18 "Hg10 mi
10:00 AM59 °FPassing clouds.3 mph63%30.21 "HgN/A
9:00 AM52 °FSunny.3 mph82%30.21 "Hg10 mi
8:00 AM48 °FClear.2 mph87%30.18 "Hg6 mi
7:00 AM43 °FSunny.No wind93%30.18 "Hg10 mi
6:00 AM45 °FSunny.2 mph93%30.15 "Hg10 mi
5:00 AM45 °FClear.5 mph87%30.15 "Hg10 mi
4:00 AM45 °FClear.2 mph87%30.15 "Hg10 mi
3:00 AM46 °FClear.2 mph82%30.18 "Hg10 mi
2:00 AM52 °FClear.2 mph67%30.18 "Hg10 mi
1:00 AM50 °FClear.3 mph76%30.21 "Hg10 mi
Weather by CustomWeather, © 2016

See weather overviewHow to use our weather pages